AFL149 EPWA-ULLI

Flight info

Callsign AFL149
Flight time N/A
Altitude 37000
Route BAMSO7G BAMSO DCT ASLUX DCT XESNA DCT BULEP DCT BOKSU DCT IRBEX DCT NUMSU DCT RISAT/K0817F370 T633 KOLET KOLET1V KOLET1B/28L
Aircraft A321/M-SDE3FGHIRWY/LB1

Departure

Time N/A
Airport Warsaw Chopin Airport (EPWA)

Arrival

Time 2026-05-03 20:18
Airport Pulkovo Airport (ULLI)
Time Latitude Longitude Altitude Speed Heading
2026-05-03 20:15 59.76192 30.47165 2077 ft 137 kts 286°
2026-05-03 20:15 59.76467 30.45357 1893 ft 137 kts 286°
2026-05-03 20:15 59.76740 30.43554 1719 ft 136 kts 286°
2026-05-03 20:15 59.77012 30.41754 1518 ft 136 kts 287°
2026-05-03 20:16 59.77284 30.39950 1346 ft 137 kts 287°
2026-05-03 20:16 59.77558 30.38126 1154 ft 138 kts 286°
2026-05-03 20:16 59.77833 30.36293 954 ft 139 kts 286°
2026-05-03 20:16 59.78107 30.34466 769 ft 140 kts 286°
2026-05-03 20:17 59.78384 30.32617 580 ft 140 kts 286°
2026-05-03 20:17 59.78661 30.30768 396 ft 140 kts 285°
2026-05-03 20:17 59.78938 30.28921 209 ft 139 kts 285°
2026-05-03 20:17 59.79206 30.27104 84 ft 124 kts 285°
2026-05-03 20:18 59.79360 30.26047 86 ft 36 kts 287°
2026-05-03 20:18 59.79376 30.25949 85 ft 0 kts 289°
2026-05-03 20:18 59.79381 30.25924 85 ft 6 kts 290°
2026-05-03 20:18 59.79405 30.25780 84 ft 16 kts 286°
2026-05-03 20:19 59.79443 30.25538 88 ft 19 kts 287°
2026-05-03 20:19 59.79480 30.25298 85 ft 18 kts 287°
2026-05-03 20:19 59.79516 30.25048 87 ft 19 kts 286°
2026-05-03 20:19 59.79557 30.24766 86 ft 25 kts 287°
2026-05-03 20:20 59.79616 30.24387 85 ft 33 kts 287°
2026-05-03 20:20 59.79689 30.23906 84 ft 40 kts 287°
2026-05-03 20:20 59.79762 30.23432 84 ft 28 kts 291°
2026-05-03 20:20 59.79847 30.23172 82 ft 8 kts 312°
2026-05-03 20:21 59.79871 30.23121 86 ft 5 kts 314°
2026-05-03 20:21 59.79894 30.23076 84 ft 4 kts 317°
2026-05-03 20:21 59.79920 30.23042 81 ft 5 kts 338°
2026-05-03 20:21 59.79950 30.23047 82 ft 5 kts 24°
2026-05-03 20:22 59.79970 30.23105 84 ft 6 kts 72°
2026-05-03 20:22 59.79964 30.23210 81 ft 11 kts 105°
2026-05-03 20:22 59.79936 30.23396 84 ft 17 kts 107°
2026-05-03 20:22 59.79895 30.23671 82 ft 24 kts 106°
2026-05-03 20:23 59.79841 30.24034 86 ft 31 kts 107°
2026-05-03 20:23 59.79781 30.24434 83 ft 30 kts 107°
2026-05-03 20:23 59.79723 30.24833 84 ft 30 kts 106°
2026-05-03 20:23 59.79664 30.25224 85 ft 29 kts 106°
2026-05-03 20:24 59.79610 30.25607 85 ft 26 kts 106°
2026-05-03 20:24 59.79565 30.25896 85 ft 19 kts 107°
2026-05-03 20:24 59.79531 30.26125 85 ft 12 kts 106°
2026-05-03 20:24 59.79507 30.26291 86 ft 12 kts 101°
2026-05-03 20:25 59.79559 30.26385 86 ft 12 kts 16°
2026-05-03 20:25 59.79636 30.26432 83 ft 11 kts 16°
2026-05-03 20:25 59.79709 30.26474 84 ft 11 kts 16°
2026-05-03 20:25 59.79779 30.26515 85 ft 10 kts 17°
2026-05-03 20:26 59.79844 30.26554 82 ft 9 kts 17°
2026-05-03 20:26 59.79905 30.26590 82 ft 9 kts 16°
2026-05-03 20:26 59.79962 30.26623 87 ft 8 kts 17°
2026-05-03 20:26 59.79987 30.26638 84 ft 0 kts 16°
2026-05-03 20:27 59.80005 30.26649 82 ft 6 kts 16°
2026-05-03 20:27 59.80028 30.26662 82 ft 0 kts 16°
2026-05-03 20:30 59.79998 30.26626 87 ft 11 kts 79°
2026-05-03 20:30 59.80048 30.26674 87 ft 6 kts 17°
2026-05-03 20:31 59.80064 30.26723 84 ft 7 kts 96°
2026-05-03 20:31 59.80056 30.26794 86 ft 0 kts 106°